Starlink 3131

operational
NORAD ID: 49427 Int'l Des: 2021-104 Owner: SPXS Country: US Constellation: starlink
LEOCIRCULAR

Über Starlink 3131

Beschreibung wird geladen...

Live-Position

3D-Globus wird geladen...

Nächste Überflüge

Höhenverlauf

Altitude vs Time

uPlot chart will show altitude changes over time

Zweizeiliger Elementsatz

1 49427U 21104V 25304.76922584 -.00000222 00000-0 41509-5 0 9992
2 49427 53.2166 87.8758 0001312 87.1207 272.9935 15.08837666219173
Epoch: 31. Okt. 2025 • Age: 24 hours

Aktueller Status

Höhe 540.1 km
Geschwindigkeit 7.60 km/s
Subsatellitenpunkt 22.88°N, 143.85°E
Startdatum 13. Nov. 2021
Alter 3.9 years
Typ internet

Technische Details

Klassifizierung Payload
Masse 290.00 kg
Trockenmasse 270.00 kg
Gesamtmasse 290.00 kg
Länge 0.20 m
Durchmesser 2.80 m
Spannweite 9.00 m
Form Box + pan
Hersteller SPXS
Bus-Typ Starlink
Phasenstatus In Orbit
Besitzer/Staat SPXS/US

Große Konstellationen

Loading constellations...